Flag Weather past 2 weeks in Samarkand, Uzbekistan

Now
28 °F

Ice fog.


Feels Like: 23 °F
Forecast: 28 / 44 °F
Wind: 5 mph from Southeast

Location: Samarkand

Current Time: Nov 29, 2014 at 2:54:47 AM

Latest Report: Nov 29, 2014 at 2:00 AM


Visibility: 2 mi

Pressure: 30.24 "Hg

Humidity: 100%

Dew point: 28 °F

Location of SamarkandLocation

Historic Weather in Samarkand — Graph

°F

Samarkand temperature yesterday

Maximum temperature yesterday: 36 °F (at 10:30 AM)
Minimum temperature yesterday: 28 °F (at 7:00 AM)
Average temperature yesterday: 31 °F

Past Weeks' High & Low Weather Summary

 TemperatureHumidityPressure
High66 °F (Nov 17, 12:30 PM)100% (Nov 21, 2:30 AM)30.42 "Hg (Nov 21, 2:30 AM)
Low28 °F (Nov 25, 11:00 PM)14% (Nov 17, 12:30 PM)29.83 "Hg (Nov 23, 3:30 PM)
Average41 °F78%30.22 "Hg
* Reported Nov 14 1:00 AM — Nov 29 1:30 AM, Samarkand, Weather by CustomWeather, © 2014

Note: Actual official high and low records may vary slightly from our data, if they occured in-between our weather recording intervals... More about our weather records

Advertising

Samarkand weather history for previous 24 hours

 ConditionsComfort  
Time TempWeatherWind HumidityBarometerVisibility
1:30 AM
Nov 29
28 °FLow clouds.7 mph93%30.24 "Hg4 mi
1:00 AM28 °FLow clouds.6 mph93%30.24 "Hg4 mi
12:30 AM28 °FLow clouds.6 mph93%30.24 "Hg4 mi
12:00 AM28 °FLow clouds.7 mph93%30.24 "Hg4 mi
11:30 PM
Nov 28
28 °FLow clouds.8 mph93%30.24 "Hg4 mi
11:00 PM28 °FLow clouds.6 mph93%30.27 "Hg4 mi
10:30 PM28 °FLow clouds.7 mph93%30.27 "Hg4 mi
10:00 PM28 °FPassing clouds.8 mph93%30.27 "Hg4 mi
9:30 PM28 °FPassing clouds.8 mph93%30.27 "Hg4 mi
9:00 PM28 °FIce fog.9 mph93%30.27 "Hg3 mi
8:30 PM28 °FIce fog.10 mph93%30.24 "Hg2 mi
8:00 PM28 °FIce fog.14 mph93%30.27 "Hg2 mi
7:30 PM28 °FIce fog.12 mph93%30.27 "Hg2 mi
7:00 PM28 °FIce fog.12 mph93%30.27 "Hg2 mi
6:30 PM28 °FIce fog.13 mph93%30.27 "Hg2 mi
6:00 PM28 °FIce fog.13 mph93%30.24 "Hg2 mi
5:30 PM30 °FIce fog.10 mph93%30.24 "Hg1 mi
5:00 PM30 °FIce fog.12 mph86%30.24 "Hg3 mi
4:30 PM30 °FIce fog.10 mph86%30.27 "Hg3 mi
4:00 PM30 °FLow clouds.9 mph93%30.27 "Hg4 mi
3:30 PM32 °FPartly sunny.9 mph87%30.27 "HgN/A
3:00 PM34 °FScattered clouds.12 mph81%30.24 "HgN/A
2:30 PM36 °FClear.9 mph81%30.24 "HgN/A
2:00 PM36 °FPassing clouds.9 mph81%30.24 "HgN/A
1:30 PM36 °FScattered clouds.8 mph81%30.27 "HgN/A
1:00 PM34 °FScattered clouds.8 mph87%30.27 "Hg4 mi
12:30 PM34 °FScattered clouds.10 mph87%30.27 "Hg4 mi
12:00 PM32 °FIce fog.12 mph93%30.27 "Hg3 mi
11:30 AM36 °FScattered clouds.10 mph87%30.27 "Hg4 mi
11:00 AM36 °FClear.9 mph81%30.27 "HgN/A
10:30 AM36 °FClear.10 mph81%30.27 "HgN/A
10:00 AM34 °FClear.8 mph81%30.27 "HgN/A
9:30 AM32 °FClear.7 mph87%30.27 "HgN/A
9:00 AM32 °FClear.N/A87%30.27 "HgN/A
8:00 AM28 °FPassing clouds.7 mph93%30.27 "HgN/A
7:30 AM28 °FPassing clouds.6 mph93%30.27 "HgN/A
7:00 AM28 °FPassing clouds.5 mph93%30.27 "HgN/A
6:30 AM30 °FPassing clouds.6 mph93%30.27 "HgN/A
6:00 AM32 °FPassing clouds.5 mph87%30.27 "HgN/A
5:00 AM32 °FOvercast.5 mph87%30.27 "HgN/A
4:00 AM32 °FPartly cloudy.3 mph93%30.27 "HgN/A
2:30 AM32 °FOvercast.5 mph93%30.27 "HgN/A
2:00 AM32 °FPartly cloudy.5 mph87%30.27 "HgN/A
Weather by CustomWeather, © 2014

See weather overviewHow to use our weather pages